[[{"header":{"parameterUnit":"m.s-1","parameterCategory":2,"la1":30.2991,"la2":30.254,"lo1":-89.0895,"lo2":-89.0444,"dy":0.0017,"dx":0.0017,"nx":28,"ny":28,"refTime":"2024-05-14T03:00:00:Z","depth":"0","parameterNumber":2,"parameterNumberName":"U-component_of_CURRENTS"},"data":[0,0,0,0,0,0,0,0,0,0,0,0,0,0,0,0,0,0,0,0,0,0,0,0,0,0,0,0,0,0,0,0,0,0,0,0,0,0,0,0,0,0,0,0,0,0,0,0,0,0,0,0,0,0,0,0,0,0,0.2925,0.2925,0,0.2819,0.2817,0.2815,0.2716,0.2717,0.2717,0.2717,0.2371,0.2362,0.2352,0,0,0,0,0,0,0,0,0,0,0,0,0,0.3157,0.3152,0.2925,0.2925,0.2925,0.282,0.2817,0.2814,0.2716,0.2717,0.2717,0.2717,0.2374,0.2363,0.2352,0,0,0,0,0,0,0,0,0,0,0,0,0,0.3041,0.315,0.2925,0.2874,0.287,0.282,0.2817,0.2813,0.2716,0.2717,0.2717,0.2717,0.2377,0.2364,0.235,0.2261,0,0,0.2307,0.2301,0,0,0,0,0,0,0,0,0.3047,0.303,0.2882,0.2878,0.2873,0.2794,0.2773,0.2621,0.2716,0.2759,0.2717,0.2717,0.2499,0.2475,0.2438,0.2244,0.2229,0.2306,0.2298,0.2292,0.2288,0,0,0,0,0,0,0,0.3055,0.3035,0.2868,0.2882,0.2877,0.2897,0.2878,0.2744,0.2614,0.2756,0.2752,0.2763,0.2493,0.2452,0.2429,0.2224,0.2306,0.2294,0.2285,0.228,0.199,0.199,0,0,0,0,0,0,0.3089,0.3041,0.2872,0.2867,0.2978,0.2894,0.2872,0.2807,0.262,0.2598,0.2763,0.2759,0.2476,0.2445,0.2416,0.2282,0.2292,0.2279,0.2271,0.1989,0.199,0.199,0,0,0,0,0,0,0.3093,0.3072,0.2877,0.2969,0.2947,0.289,0.2818,0.2805,0.278,0.2632,0.2602,0.2755,0.2474,0.2435,0.2294,0.2268,0.2272,0.226,0.1988,0.1989,0.199,0.2023,0,0,0,0,0,0,0.3099,0.3072,0.3039,0.2968,0.2944,0.2853,0.2819,0.2804,0.2793,0.2786,0.2614,0.2582,0.2472,0.2316,0.228,0.2249,0.2249,0.1987,0.1989,0.199,0.2021,0.2025,0.2028,0,0,0,0,0,0.3106,0.3057,0.3035,0.3017,0.2895,0.2855,0.2841,0.2796,0.2793,0.2773,0.2656,0.2588,0.2301,0.2303,0.2261,0.2226,0.1987,0.1988,0.199,0.2019,0.2024,0.2028,0,0,0,0,0,0,0.315,0.3042,0.3016,0.2938,0.291,0.2844,0.2828,0.2813,0.2709,0.2693,0.2559,0.2516,0.2395,0.2318,0.2325,0.2159,0.2147,0.214,0.2184,0.2187,0.219,0.221,0.2237,0,0,0,0,0,0.3146,0.3077,0.3007,0.2961,0.2936,0.289,0.2873,0.2844,0.2759,0.2718,0.2603,0.2485,0.2368,0.2286,0.2175,0.2053,0.2054,0.2023,0.2026,0.2029,0.2024,0.2053,0.2059,0.1995,0.1995,0.1995,0,0,0.3168,0.3099,0.3067,0.2969,0.2932,0.2861,0.2874,0.2848,0.2773,0.2689,0.2543,0.2485,0.2346,0.2217,0.2159,0.2142,0.2047,0.2031,0.2034,0.2027,0.2055,0.2061,0.2067,0.1996,0.1996,0.1996,0,0,0.3157,0.3096,0.3019,0.298,0.2929,0.2881,0.2883,0.2811,0.2757,0.2647,0.2572,0.2515,0.2316,0.2225,0.2149,0.2113,0.2078,0.2088,0.2086,0.2114,0.212,0.2124,0.213,0.2135,0.2075,0.2075,0.2075,0,0.3168,0.3038,0.3012,0.2929,0.2877,0.2885,0.2793,0.2742,0.264,0.2601,0.2605,0.2424,0.232,0.2179,0.2164,0.2116,0.2126,0.207,0.2119,0.2124,0.2128,0.2133,0.2139,0.2076,0.2076,0.2076,0.2076,0,0.3076,0.2984,0.295,0.2807,0.277,0.2706,0.2638,0.26,0.2571,0.2541,0.2457,0.2368,0.2277,0.2246,0.2167,0.2135,0.2131,0.2134,0.2109,0.2137,0.214,0.2145,0.2079,0.2078,0.2078,0.2077,0,0,0.296,0.2886,0.2848,0.2784,0.2682,0.2635,0.2539,0.2445,0.2426,0.2383,0.2345,0.221,0.2267,0.2191,0.2141,0.2152,0.2187,0.215,0.215,0.2155,0.2241,0.22,0.2201,0.2207,0.2208,0.2209,0.2229,0,0.2842,0.2693,0.2666,0.2522,0.2426,0.2419,0.2346,0.2305,0.2294,0.2282,0.2269,0.2226,0.2208,0.2204,0.2212,0.2195,0.2202,0.218,0.2212,0.2212,0.2173,0.2206,0.2106,0.2113,0.2234,0.2235,0.2235,0,0.2649,0.2583,0.2431,0.2367,0.2325,0.2271,0.2192,0.2142,0.2163,0.2177,0.2201,0.2225,0.2204,0.2231,0.2234,0.2225,0.2229,0.2239,0.224,0.2191,0.218,0.2105,0.2117,0.2076,0.2243,0.2242,0.2241,0,0.2492,0.2374,0.2255,0.2218,0.2171,0.2126,0.211,0.2118,0.2117,0.2148,0.2209,0.2204,0.2234,0.2251,0.227,0.2259,0.2316,0.2303,0.2267,0.2263,0.2177,0.2164,0.215,0.2328,0.2328,0.2328,0.2328,0,0.2287,0.218,0.2199,0.2127,0.2058,0.2052,0.2025,0.2031,0.2094,0.213,0.2177,0.2217,0.2255,0.2295,0.2291,0.2297,0.2335,0.227,0.2271,0.2184,0.2172,0.213,0.2109,0.2329,0.2328,0.2328,0.2328,0,0.2096,0.209,0.1991,0.1975,0.1982,0.1942,0.201,0.203,0.209,0.2146,0.2166,0.2245,0.2286,0.232,0.2352,0.2327,0.2264,0.2322,0.2206,0.2193,0.2094,0.2078,0.1978,0.1925,0.2271,0.227,0.227,0,0.1967,0.1906,0.1912,0.1926,0.1922,0.1919,0.1951,0.201,0.2052,0.2153,0.2177,0.2253,0.2277,0.232,0.2298,0.2287,0.2237,0.2185,0.2136,0.2076,0.2061,0.1986,0.1944,0.2033,0.203,0.2028,0.2027,0,0.1791,0.1828,0.1814,0.1853,0.1878,0.1894,0.1939,0.1966,0.2042,0.2085,0.2135,0.2165,0.2226,0.2176,0.2187,0.2163,0.2072,0.2139,0.2115,0.19,0.1781,0.1734,0.2025,0.2008,0.201,0.2011,0.2012,0.2013,0.1724,0.1725,0.1781,0.18,0.1838,0.1849,0.1823,0.1882,0.1903,0.1921,0.2025,0.2023,0.2056,0.2051,0.2025,0.1939,0.1941,0.1864,0.1858,0.1795,0.171,0.195,0.1916,0.1917,0.1918,0.1919,0.192,0,0.1672,0.1716,0.1739,0.1764,0.1757,0.1792,0.1804,0.1757,0.1715,0.1785,0.1795,0.1814,0.1779,0.1803,0.1755,0.1675,0.1596,0.1629,0.1507,0.1487,0.1735,0.1693,0.1564,0.1564,0.1564,0.1564,0.1564,0.1564,0.1669,0.1696,0.171,0.168,0.1679,0.1604,0.1568,0.1512,0.1521,0.1488,0.1491,0.1537,0.1631,0.1603,0.1523,0.1484,0.1391,0.1305,0.1335,0.1524,0.1546,0.1567,0.1524,0.1361,0.1361,0.1014,0.1011,0.1009]},{"header":{"parameterUnit":"m.s-1","parameterCategory":2,"la1":30.2991,"la2":30.254,"lo1":-89.0895,"lo2":-89.0444,"dy":0.0017,"dx":0.0017,"nx":28,"ny":28,"refTime":"2024-05-14T03:00:00:Z","depth":"0","parameterNumber":3,"parameterNumberName":"V-component_of_CURRENTS"},"data":[0,0,0,0,0,0,0,0,0,0,0,0,0,0,0,0,0,0,0,0,0,0,0,0,0,0,0,0,0,0,0,0,0,0,0,0,0,0,0,0,0,0,0,0,0,0,0,0,0,0,0,0,0,0,0,0,0,0,-0.0551,-0.0551,0,-0.0514,-0.0513,-0.0512,-0.0468,-0.0468,-0.0468,-0.0467,-0.0295,-0.0291,-0.0287,0,0,0,0,0,0,0,0,0,0,0,0,0,-0.0692,-0.0689,-0.0551,-0.0551,-0.0551,-0.0514,-0.0513,-0.0512,-0.0468,-0.0468,-0.0468,-0.0467,-0.0297,-0.0292,-0.0287,0,0,0,0,0,0,0,0,0,0,0,0,0,-0.0636,-0.0688,-0.0551,-0.0527,-0.0525,-0.0514,-0.0513,-0.0512,-0.0468,-0.0468,-0.0467,-0.0467,-0.0299,-0.0292,-0.0286,-0.0255,0,0,-0.0266,-0.0263,0,0,0,0,0,0,0,0,-0.0639,-0.0631,-0.0531,-0.0529,-0.0527,-0.0499,-0.05,-0.0421,-0.0468,-0.0485,-0.0467,-0.0467,-0.0354,-0.0343,-0.0333,-0.0247,-0.0239,-0.0266,-0.0262,-0.0259,-0.0257,0,0,0,0,0,0,0,-0.0643,-0.0633,-0.0532,-0.0531,-0.0528,-0.0557,-0.0547,-0.0486,-0.0417,-0.0484,-0.0482,-0.0485,-0.0351,-0.0339,-0.0328,-0.0237,-0.0266,-0.026,-0.0256,-0.0254,-0.0109,-0.0109,0,0,0,0,0,0,-0.065,-0.0635,-0.0533,-0.0531,-0.0588,-0.0554,-0.0543,-0.0505,-0.042,-0.0409,-0.0485,-0.0483,-0.0351,-0.0336,-0.0322,-0.0243,-0.0259,-0.0253,-0.0249,-0.0109,-0.0109,-0.0109,0,0,0,0,0,0,-0.0653,-0.064,-0.0535,-0.0589,-0.0578,-0.0552,-0.051,-0.0504,-0.0493,-0.0423,-0.0409,-0.048,-0.035,-0.0331,-0.0259,-0.0237,-0.025,-0.0244,-0.0109,-0.0109,-0.0109,-0.0108,0,0,0,0,0,0,-0.0656,-0.064,-0.0626,-0.0588,-0.0575,-0.0525,-0.051,-0.0504,-0.0498,-0.0494,-0.0414,-0.0398,-0.0348,-0.0269,-0.0253,-0.0228,-0.0239,-0.0109,-0.0109,-0.0109,-0.0108,-0.0108,-0.0108,0,0,0,0,0,-0.0661,-0.0643,-0.0624,-0.0613,-0.055,-0.0526,-0.0521,-0.0501,-0.0498,-0.049,-0.0433,-0.04,-0.0259,-0.0263,-0.0244,-0.0217,-0.0109,-0.0109,-0.0109,-0.0108,-0.0108,-0.0108,0,0,0,0,0,0,-0.0727,-0.0636,-0.0614,-0.0577,-0.0553,-0.052,-0.0519,-0.0507,-0.046,-0.0451,-0.0387,-0.0366,-0.0299,-0.0266,-0.0273,-0.0182,-0.0184,-0.0181,-0.019,-0.0189,-0.0189,-0.0182,-0.0234,0,0,0,0,0,-0.0727,-0.0676,-0.0619,-0.0601,-0.0578,-0.055,-0.0543,-0.0524,-0.048,-0.0461,-0.0405,-0.0346,-0.0286,-0.0245,-0.0191,-0.0131,-0.0125,-0.0109,-0.0109,-0.0109,-0.0094,-0.0092,-0.009,-0.011,-0.011,-0.011,0,0,-0.0761,-0.0703,-0.0683,-0.0611,-0.0586,-0.0529,-0.0542,-0.0525,-0.0478,-0.0446,-0.0368,-0.034,-0.0273,-0.0206,-0.0174,-0.0171,-0.0103,-0.0109,-0.0109,-0.0093,-0.0092,-0.009,-0.0088,-0.011,-0.011,-0.011,0,0,-0.0772,-0.0733,-0.0671,-0.0633,-0.0582,-0.0549,-0.0543,-0.0495,-0.0471,-0.0405,-0.0373,-0.0337,-0.0238,-0.0192,-0.0153,-0.0124,-0.0108,-0.0116,-0.0093,-0.0092,-0.009,-0.0089,-0.0087,-0.0085,-0.011,-0.011,-0.011,0,-0.0802,-0.0701,-0.0669,-0.0595,-0.0556,-0.0547,-0.0479,-0.0454,-0.0396,-0.0368,-0.0376,-0.027,-0.0226,-0.0141,-0.0134,-0.012,-0.0121,-0.0095,-0.0092,-0.009,-0.0088,-0.0087,-0.0085,-0.011,-0.011,-0.011,-0.011,0,-0.0733,-0.0665,-0.0638,-0.0508,-0.0482,-0.0433,-0.038,-0.0355,-0.0334,-0.0304,-0.0247,-0.0213,-0.0153,-0.0145,-0.0118,-0.0081,-0.0088,-0.0098,-0.009,-0.0086,-0.0085,-0.0083,-0.011,-0.011,-0.011,-0.011,0,0,-0.0694,-0.0598,-0.057,-0.0513,-0.042,-0.0386,-0.0322,-0.0246,-0.0205,-0.0184,-0.0133,-0.0074,-0.0098,-0.0059,-0.0053,-0.0051,-0.005,-0.0068,-0.0068,-0.0063,-0.0049,-0.0052,-0.005,-0.0064,-0.0064,-0.0063,-0.0057,0,-0.0614,-0.0486,-0.0447,-0.0335,-0.026,-0.0241,-0.0183,-0.0141,-0.0111,-0.007,-0.0071,-0.0024,-0.0051,-0.0041,-0.0044,-0.0041,-0.0043,-0.0051,-0.0056,-0.0056,-0.0057,-0.0047,-0.0027,-0.002,-0.0055,-0.0054,-0.0054,0,-0.0479,-0.0418,-0.0301,-0.023,-0.0194,-0.0144,-0.006,-0.0012,0.0027,0.0036,0.0049,0.0043,0.0059,0.0013,0.0013,0.0007,-0.0018,-0.0033,-0.0033,-0.0029,-0.0054,-0.0028,-0.0014,-0.0067,-0.0051,-0.0051,-0.0051,0,-0.0402,-0.0289,-0.0202,-0.0167,-0.0095,-0.006,-0.0026,0.0022,0.0068,0.0092,0.0116,0.0113,0.0118,0.0082,0.0046,0.0028,0.0032,0.0003,-0.0022,-0.0023,-0.0001,-0.0,-0.0031,-0.0006,-0.0006,-0.0006,-0.0006,0,-0.0274,-0.0197,-0.0171,-0.0115,-0.0038,-0.0015,0.0066,0.0089,0.013,0.02,0.0163,0.0209,0.0132,0.0124,0.0072,0.0041,0.005,-0.0007,-0.0017,-0.0001,-0.0001,-0.0042,-0.0084,-0.0006,-0.0006,-0.0006,-0.0006,0,-0.0182,-0.0148,-0.0063,-0.0012,0.0006,0.0054,0.0113,0.0166,0.0191,0.0275,0.0282,0.0285,0.0275,0.0203,0.0154,0.0089,0.0022,0.0031,0.0053,0.0046,-0.0039,-0.0081,-0.0106,-0.0128,0.0003,0.0003,0.0003,0,-0.0121,-0.0065,-0.0007,0.003,0.0055,0.0115,0.0162,0.0195,0.0259,0.0344,0.0396,0.0395,0.0428,0.034,0.022,0.0124,0.0052,0.0058,0.0025,-0.0029,-0.0084,-0.011,-0.0129,0.0051,0.0052,0.0052,0.0052,0,-0.0031,-0.0019,0.0029,0.0098,0.0151,0.0219,0.0287,0.0347,0.0413,0.0485,0.0588,0.0615,0.0531,0.0445,0.0282,0.0203,0.0023,0.0061,0.0003,-0.0044,-0.0071,-0.0101,0.0028,0.0055,0.0055,0.0055,0.0055,0.0055,0.0013,0.0049,0.01,0.0171,0.0235,0.0332,0.04,0.0482,0.0596,0.0719,0.0733,0.0792,0.0639,0.0429,0.0301,0.0071,0.0062,0.0002,-0.0043,-0.0062,-0.0088,0.0048,0.0061,0.0061,0.0061,0.0061,0.006,0,0.007,0.011,0.0172,0.0263,0.035,0.0371,0.0497,0.0572,0.0717,0.0814,0.0895,0.0872,0.0684,0.046,0.0152,-0.0005,-0.0065,-0.009,-0.0122,-0.0137,-0.001,-0.0012,-0.0012,-0.0012,-0.0012,-0.0012,-0.0012,-0.0012,0.0105,0.0173,0.0206,0.0355,0.0422,0.0543,0.0622,0.0727,0.0815,0.0942,0.0986,0.1002,0.0866,0.0328,-0.0023,-0.0117,-0.022,-0.0233,-0.0292,-0.0211,-0.0206,-0.0201,-0.0213,-0.0255,-0.0255,-0.0383,-0.0384,-0.0385]}],[{"header":{"parameterUnit":"m.s-1","parameterCategory":2,"la1":30.2991,"la2":30.254,"lo1":-89.0895,"lo2":-89.0444,"dy":0.0017,"dx":0.0017,"nx":28,"ny":28,"refTime":"2024-05-14T03:00:00:Z","depth":"2","parameterNumber":2,"parameterNumberName":"U-component_of_CURRENTS"},"data":[0,0,0,0,0,0,0,0,0,0,0,0,0,0,0,0,0,0,0,0,0,0,0,0,0,0,0,0,0,0,0,0,0,0,0,0,0,0,0,0,0,0,0,0,0,0,0,0,0,0,0,0,0,0,0,0,0,0,0.1824,0.1823,0,0.1798,0.1798,0.1799,0.1825,0.1826,0.1826,0.1827,0.1784,0.1783,0.1781,0,0,0,0,0,0,0,0,0,0,0,0,0,0.1815,0.1816,0.1824,0.1823,0.1822,0.1798,0.1798,0.1799,0.1825,0.1826,0.1826,0.1827,0.1785,0.1783,0.1781,0,0,0,0,0,0,0,0,0,0,0,0,0,0.1813,0.1816,0.1824,0.1828,0.1828,0.1798,0.1798,0.1799,0.1825,0.1826,0.1827,0.1827,0.1786,0.1783,0.1781,0.1752,0,0,0.1774,0.1773,0,0,0,0,0,0,0,0,0.1813,0.1814,0.1828,0.1828,0.1827,0.181,0.1779,0.178,0.1825,0.1833,0.1827,0.1828,0.1787,0.1784,0.1787,0.175,0.1748,0.1774,0.1772,0.1771,0.177,0,0,0,0,0,0,0,0.1813,0.1815,0.182,0.1827,0.1826,0.1802,0.1805,0.178,0.1811,0.1832,0.1832,0.1819,0.1787,0.1789,0.1786,0.1748,0.1774,0.1772,0.177,0.1769,0.1745,0.1746,0,0,0,0,0,0,0.1808,0.1815,0.1821,0.1819,0.1815,0.1802,0.1804,0.182,0.1811,0.1809,0.1819,0.1821,0.1793,0.1789,0.1785,0.1787,0.1771,0.1769,0.1768,0.1744,0.1745,0.1746,0,0,0,0,0,0,0.1808,0.181,0.1822,0.1809,0.1809,0.1801,0.1819,0.1819,0.1835,0.18,0.1799,0.1835,0.1794,0.1788,0.1783,0.1784,0.1768,0.1766,0.1743,0.1745,0.1746,0.1767,0,0,0,0,0,0,0.1809,0.1811,0.1824,0.181,0.1809,0.1816,0.1817,0.1818,0.1821,0.1824,0.1813,0.1809,0.1794,0.1787,0.178,0.178,0.1764,0.1742,0.1744,0.1745,0.1765,0.1768,0.1771,0,0,0,0,0,0.1809,0.1814,0.1826,0.1825,0.1827,0.1816,0.1814,0.1814,0.1822,0.1831,0.1829,0.181,0.1792,0.1785,0.1778,0.1777,0.1742,0.1744,0.1745,0.1763,0.1768,0.1771,0,0,0,0,0,0,0.1793,0.1816,0.1829,0.1836,0.1834,0.1818,0.1821,0.182,0.1827,0.1834,0.1814,0.181,0.1809,0.1792,0.1786,0.1778,0.1765,0.1766,0.1782,0.1786,0.1789,0.1792,0.1762,0,0,0,0,0,0.18,0.1836,0.1829,0.184,0.1841,0.1838,0.1834,0.1835,0.183,0.1835,0.1829,0.1821,0.1808,0.1798,0.179,0.1774,0.1779,0.1773,0.1776,0.1779,0.1779,0.1808,0.1814,0.1752,0.1752,0.1752,0,0,0.1797,0.1813,0.1832,0.1842,0.1847,0.1836,0.1841,0.1841,0.1832,0.1826,0.1831,0.1834,0.181,0.1805,0.1802,0.1789,0.1798,0.1781,0.1783,0.1782,0.1811,0.1817,0.1822,0.1753,0.1753,0.1753,0,0,0.1792,0.1827,0.1847,0.1848,0.1852,0.1846,0.1849,0.1849,0.1857,0.1854,0.1853,0.1865,0.1838,0.1832,0.1818,0.1832,0.182,0.1827,0.1833,0.1861,0.1866,0.1871,0.1878,0.1883,0.182,0.182,0.182,0,0.1792,0.1801,0.1843,0.1844,0.1833,0.1852,0.1836,0.1843,0.1842,0.1852,0.186,0.1865,0.185,0.1838,0.1845,0.1838,0.1846,0.1816,0.1865,0.187,0.1874,0.188,0.1886,0.1821,0.1821,0.1821,0.1821,0,0.177,0.1789,0.1796,0.1817,0.1818,0.181,0.1813,0.1832,0.1846,0.1854,0.1875,0.1876,0.188,0.1877,0.1857,0.1877,0.187,0.1873,0.1854,0.1882,0.1886,0.1891,0.1823,0.1822,0.1822,0.1822,0,0,0.1761,0.1779,0.1789,0.1788,0.1799,0.1794,0.1801,0.1806,0.1827,0.1848,0.1869,0.1865,0.1897,0.1885,0.188,0.1897,0.1933,0.1895,0.1896,0.1899,0.1984,0.1937,0.1938,0.1947,0.1948,0.1949,0.1972,0,0.1734,0.1722,0.1742,0.1733,0.1719,0.1749,0.1757,0.1778,0.1809,0.1846,0.1868,0.1891,0.1887,0.1901,0.192,0.1937,0.1949,0.1925,0.1959,0.1959,0.1913,0.1944,0.1779,0.1782,0.1977,0.1977,0.1978,0,0.1694,0.1698,0.1672,0.1694,0.1696,0.1697,0.1731,0.1742,0.1803,0.1836,0.1879,0.1909,0.1936,0.1937,0.198,0.1967,0.1974,0.1986,0.1987,0.194,0.1923,0.1788,0.1784,0.1987,0.1986,0.1985,0.1985,0,0.164,0.1651,0.1627,0.1627,0.1651,0.1662,0.1685,0.1744,0.1778,0.1841,0.1889,0.1927,0.1964,0.1986,0.2015,0.2002,0.2067,0.2052,0.2012,0.2008,0.1871,0.1853,0.2081,0.2081,0.2081,0.2081,0.2081,0,0.1582,0.1575,0.1606,0.1594,0.1602,0.1633,0.1669,0.1707,0.1782,0.183,0.1887,0.1931,0.1985,0.2029,0.2032,0.2044,0.2084,0.2018,0.2017,0.1873,0.1856,0.2036,0.2031,0.2082,0.2082,0.2081,0.2081,0,0.1519,0.1532,0.1521,0.1555,0.1572,0.1582,0.1664,0.17,0.1775,0.184,0.1864,0.1954,0.2006,0.205,0.2094,0.2071,0.208,0.207,0.1889,0.1866,0.1991,0.1987,0.2018,0.2017,0.2016,0.2015,0.2014,0,0.1466,0.1455,0.1497,0.1515,0.1533,0.157,0.1607,0.1684,0.1728,0.1844,0.1867,0.1955,0.199,0.2045,0.2024,0.202,0.207,0.1859,0.18,0.1992,0.1988,0.1985,0.1982,0.1622,0.1618,0.1615,0.1612,0,0.1395,0.1427,0.144,0.1477,0.1511,0.1542,0.1596,0.1625,0.1716,0.1769,0.1831,0.1871,0.1933,0.1859,0.1873,0.1844,0.1845,0.1792,0.2052,0.1668,0.1622,0.1617,0.1626,0.1584,0.1587,0.1589,0.159,0.1591,0.1366,0.1374,0.1416,0.1441,0.1478,0.1496,0.1495,0.155,0.1588,0.1631,0.1723,0.1721,0.1747,0.1677,0.1624,0.1576,0.17,0.1607,0.1615,0.1628,0.1582,0.1537,0.1473,0.1475,0.1477,0.1479,0.148,0,0.1331,0.1357,0.1381,0.1404,0.1406,0.1448,0.1473,0.145,0.1442,0.15,0.1527,0.1418,0.1369,0.1396,0.1277,0.127,0.1243,0.1213,0.1162,0.1192,0.1218,0.115,0.0927,0.0926,0.0924,0.0923,0,0,0.1322,0.1332,0.134,0.1323,0.1335,0.1298,0.1287,0.1263,0.1273,0.1244,0.1224,0.1319,0.1363,0.1139,0.1103,0.0995,0.1085,0.0951,0.1396,0.1367,0.1392,0.1449,0.1379,0,0,0,0,0]},{"header":{"parameterUnit":"m.s-1","parameterCategory":2,"la1":30.2991,"la2":30.254,"lo1":-89.0895,"lo2":-89.0444,"dy":0.0017,"dx":0.0017,"nx":28,"ny":28,"refTime":"2024-05-14T03:00:00:Z","depth":"2","parameterNumber":3,"parameterNumberName":"V-component_of_CURRENTS"},"data":[0,0,0,0,0,0,0,0,0,0,0,0,0,0,0,0,0,0,0,0,0,0,0,0,0,0,0,0,0,0,0,0,0,0,0,0,0,0,0,0,0,0,0,0,0,0,0,0,0,0,0,0,0,0,0,0,0,0,0.0157,0.0158,0,0.0146,0.0146,0.0145,0.0089,0.0089,0.0088,0.0088,0.0066,0.0066,0.0066,0,0,0,0,0,0,0,0,0,0,0,0,0,0.0161,0.016,0.0157,0.0158,0.0158,0.0147,0.0146,0.0145,0.009,0.0089,0.0088,0.0087,0.0066,0.0066,0.0066,0,0,0,0,0,0,0,0,0,0,0,0,0,0.0148,0.016,0.0157,0.0135,0.0134,0.0147,0.0146,0.0145,0.009,0.0089,0.0088,0.0087,0.0066,0.0066,0.0066,0.0084,0,0,0.0066,0.0066,0,0,0,0,0,0,0,0,0.0149,0.0147,0.0138,0.0137,0.0135,0.0125,0.014,0.0126,0.009,0.0098,0.0088,0.0087,0.0091,0.0089,0.0077,0.0083,0.0082,0.0066,0.0066,0.0066,0.0066,0,0,0,0,0,0,0,0.015,0.0147,0.0145,0.0139,0.0137,0.0137,0.0133,0.0136,0.0093,0.0097,0.0095,0.0107,0.0089,0.0077,0.0077,0.0081,0.0066,0.0066,0.0066,0.0066,0.0062,0.0062,0,0,0,0,0,0,0.0166,0.0148,0.0145,0.0145,0.0149,0.0138,0.0134,0.0123,0.0093,0.009,0.0108,0.0105,0.0078,0.0077,0.0076,0.0067,0.0066,0.0066,0.0066,0.0062,0.0062,0.0062,0,0,0,0,0,0,0.0166,0.0165,0.0146,0.0154,0.0153,0.014,0.0128,0.0123,0.0106,0.0103,0.0098,0.0096,0.0077,0.0076,0.0059,0.0067,0.0066,0.0066,0.0062,0.0062,0.0062,0.0068,0,0,0,0,0,0,0.0166,0.0164,0.0155,0.0155,0.0153,0.0149,0.013,0.0124,0.0119,0.0114,0.0092,0.0089,0.0076,0.0059,0.0059,0.0067,0.0066,0.0062,0.0062,0.0062,0.0068,0.0068,0.0068,0,0,0,0,0,0.0165,0.0167,0.0154,0.0154,0.0142,0.0151,0.0148,0.0132,0.012,0.0112,0.0087,0.0089,0.0058,0.0058,0.0058,0.0067,0.0062,0.0062,0.0062,0.0068,0.0068,0.0068,0,0,0,0,0,0,0.0189,0.0162,0.0148,0.0146,0.0146,0.0144,0.0142,0.0134,0.0108,0.0102,0.0084,0.0079,0.0068,0.0067,0.0067,0.0064,0.0063,0.0063,0.0068,0.0068,0.0068,0.0083,0.0066,0,0,0,0,0,0.0186,0.0154,0.0157,0.0153,0.0155,0.0146,0.0146,0.0139,0.0127,0.0113,0.0093,0.0078,0.007,0.0066,0.0056,0.0057,0.0059,0.0064,0.0064,0.0064,0.0076,0.0079,0.0081,0.0061,0.0061,0.0061,0,0,0.0198,0.0178,0.0164,0.0152,0.0147,0.0151,0.014,0.0146,0.0139,0.0119,0.0088,0.0077,0.0069,0.006,0.0057,0.0059,0.0067,0.0064,0.0064,0.0076,0.0079,0.0081,0.0083,0.0061,0.0061,0.0061,0,0,0.0209,0.0186,0.0165,0.0164,0.0161,0.0157,0.0161,0.0152,0.0133,0.0117,0.0098,0.0088,0.007,0.0065,0.0063,0.0063,0.0066,0.0062,0.0079,0.0082,0.0084,0.0086,0.0077,0.0078,0.0065,0.0065,0.0065,0,0.0219,0.0197,0.0169,0.0164,0.0167,0.0161,0.0166,0.0153,0.0135,0.0131,0.0108,0.0089,0.0076,0.0083,0.0073,0.0066,0.0063,0.0079,0.0083,0.0085,0.0087,0.0078,0.0079,0.0066,0.0066,0.0065,0.0065,0,0.0228,0.0207,0.0206,0.0176,0.0177,0.0185,0.0177,0.0165,0.0146,0.0142,0.0132,0.0105,0.0101,0.0094,0.0081,0.0093,0.0083,0.008,0.0084,0.0089,0.0079,0.008,0.0066,0.0066,0.0066,0.0066,0,0,0.0224,0.021,0.0201,0.0196,0.0184,0.0192,0.0181,0.0182,0.0193,0.0161,0.0168,0.0142,0.0138,0.0136,0.0121,0.012,0.0116,0.0105,0.0105,0.01,0.0114,0.0098,0.0098,0.0113,0.0113,0.0114,0.0097,0,0.0227,0.0224,0.0211,0.021,0.0212,0.0205,0.0203,0.0205,0.0199,0.0203,0.0186,0.0186,0.0152,0.0152,0.0145,0.013,0.0121,0.0121,0.0107,0.0107,0.0096,0.01,0.0108,0.0094,0.0098,0.0098,0.0098,0,0.0222,0.0217,0.0226,0.0226,0.0228,0.0233,0.0242,0.0246,0.0258,0.0254,0.0255,0.0242,0.0232,0.0201,0.0176,0.0176,0.0146,0.0128,0.0127,0.0116,0.0095,0.0092,0.0096,0.01,0.01,0.01,0.01,0,0.0221,0.0217,0.0225,0.0227,0.0238,0.0241,0.0248,0.0265,0.0289,0.0293,0.0317,0.0294,0.0292,0.0253,0.02,0.019,0.0174,0.0157,0.0113,0.0111,0.0119,0.0117,0.014,0.014,0.014,0.014,0.014,0,0.0216,0.0214,0.023,0.0236,0.0264,0.0259,0.03,0.0305,0.0337,0.0392,0.0351,0.038,0.0307,0.0284,0.0225,0.0174,0.019,0.0121,0.0111,0.0119,0.0117,0.0127,0.0125,0.014,0.014,0.014,0.014,0,0.0206,0.0215,0.0233,0.0253,0.0267,0.0288,0.0343,0.0385,0.0398,0.0464,0.0467,0.0451,0.0417,0.034,0.028,0.0215,0.016,0.0135,0.0141,0.0131,0.0086,0.0085,0.0088,0.0087,0.0087,0.0086,0.0086,0,0.0202,0.0214,0.0257,0.0291,0.0302,0.0342,0.0388,0.0414,0.0468,0.0519,0.0559,0.0532,0.0533,0.0423,0.0301,0.0191,0.017,0.0115,0.0097,0.0094,0.0083,0.0083,0.0083,0.0103,0.0103,0.0103,0.0103,0,0.021,0.0231,0.0261,0.033,0.0381,0.0442,0.0502,0.0551,0.0599,0.0644,0.0697,0.0694,0.0588,0.0476,0.0308,0.0229,0.013,0.0108,0.0118,0.0113,0.0107,0.0097,0.0096,0.0101,0.0101,0.0102,0.0102,0.0102,0.0232,0.0265,0.0324,0.0388,0.0453,0.0535,0.0584,0.0654,0.0733,0.0796,0.0793,0.0786,0.0652,0.0442,0.0296,0.0129,0.0142,0.0075,0.0077,0.0078,0.0081,0.0074,0.0063,0.0062,0.0062,0.0062,0.0062,0,0.0275,0.0321,0.0382,0.0466,0.0538,0.0562,0.0664,0.071,0.0796,0.0851,0.0878,0.0754,0.0627,0.0466,0.0229,0.009,0.0075,0.0033,0.0049,0.0052,0.0054,0.0056,0.003,0.003,0.0029,0.0029,0,0,0.031,0.0381,0.0412,0.053,0.0584,0.0671,0.0724,0.0789,0.0839,0.0883,0.0879,0.086,0.0681,0.05,0.0311,0.0171,0.0139,0.0136,0.0178,0.0222,0.0226,0.0096,0.0104,0,0,0,0,0]}],[{"header":{"parameterUnit":"m.s-1","parameterCategory":2,"la1":30.2991,"la2":30.254,"lo1":-89.0895,"lo2":-89.0444,"dy":0.0017,"dx":0.0017,"nx":28,"ny":28,"refTime":"2024-05-14T03:00:00:Z","depth":"4","parameterNumber":2,"parameterNumberName":"U-component_of_CURRENTS"},"data":[0,0,0,0,0,0,0,0,0,0,0,0,0,0,0,0,0,0,0,0,0,0,0,0,0,0,0,0,0,0,0,0,0,0,0,0,0,0,0,0,0,0,0,0,0,0,0,0,0,0,0,0,0,0,0,0,0,0,0.0899,0.0899,0,0.0939,0.0939,0.094,0.0983,0.0984,0.0984,0.0985,0.1163,0.1167,0.1172,0,0,0,0,0,0,0,0,0,0,0,0,0,0.081,0.0812,0.0899,0.0899,0.0899,0.0939,0.0939,0.094,0.0983,0.0984,0.0985,0.0985,0.1162,0.1167,0.1172,0,0,0,0,0,0,0,0,0,0,0,0,0,0.085,0.0812,0.0898,0.0925,0.0928,0.0939,0.0939,0.094,0.0983,0.0984,0.0985,0.0986,0.116,0.1166,0.1173,0.1194,0,0,0.1192,0.1195,0,0,0,0,0,0,0,0,0.0847,0.0853,0.0921,0.0924,0.0927,0.0957,0.0973,0.1032,0.0983,0.0963,0.0985,0.0986,0.1106,0.1117,0.1121,0.1203,0.121,0.1192,0.1196,0.1199,0.1201,0,0,0,0,0,0,0,0.0845,0.0851,0.0915,0.0921,0.0925,0.0919,0.0926,0.0984,0.1032,0.0964,0.0968,0.0971,0.1109,0.1115,0.1126,0.1213,0.1192,0.1198,0.1202,0.1204,0.139,0.1391,0,0,0,0,0,0,0.0841,0.0849,0.0914,0.0916,0.0888,0.092,0.0928,0.0946,0.1028,0.104,0.097,0.0973,0.1104,0.1119,0.1133,0.1241,0.1199,0.1205,0.1209,0.1389,0.1391,0.1392,0,0,0,0,0,0,0.0839,0.0847,0.0912,0.0882,0.089,0.0921,0.0941,0.0947,0.0973,0.1031,0.1046,0.0993,0.1105,0.1124,0.1215,0.1246,0.1208,0.1214,0.1388,0.139,0.1391,0.1409,0,0,0,0,0,0,0.0836,0.0846,0.0863,0.0882,0.0891,0.0934,0.094,0.0947,0.0973,0.0977,0.1056,0.1072,0.1107,0.1205,0.1221,0.1254,0.1218,0.1386,0.1389,0.1391,0.1407,0.1411,0.1415,0,0,0,0,0,0.0833,0.0846,0.0864,0.0872,0.0913,0.0934,0.0939,0.0963,0.0973,0.0989,0.1052,0.107,0.1229,0.1212,0.123,0.1265,0.1385,0.1388,0.1391,0.1405,0.141,0.1415,0,0,0,0,0,0,0.0806,0.0852,0.0872,0.0897,0.0923,0.0942,0.0961,0.0971,0.1027,0.1047,0.1097,0.1118,0.1207,0.1232,0.1211,0.1322,0.1306,0.1312,0.1311,0.1316,0.132,0.131,0.1224,0,0,0,0,0,0.081,0.0845,0.0875,0.0899,0.0917,0.0943,0.0956,0.0975,0.102,0.1044,0.1098,0.1161,0.1226,0.1268,0.1327,0.1394,0.1399,0.1424,0.1428,0.1431,0.1434,0.1462,0.1469,0.14,0.14,0.14,0,0,0.0802,0.0836,0.0852,0.0897,0.0925,0.0955,0.0955,0.0987,0.1021,0.1059,0.1138,0.1186,0.1248,0.1326,0.1366,0.1355,0.1453,0.1434,0.1436,0.1438,0.1466,0.1472,0.1478,0.1402,0.1402,0.1402,0,0,0.0805,0.0843,0.0874,0.0904,0.0952,0.0972,0.0986,0.1024,0.1057,0.1128,0.1166,0.123,0.1327,0.1371,0.1406,0.1465,0.1475,0.1484,0.15,0.1528,0.1533,0.1538,0.1548,0.1554,0.1483,0.1483,0.1483,0,0.0804,0.0846,0.0882,0.0922,0.095,0.0984,0.1017,0.1053,0.1116,0.1152,0.1163,0.1294,0.1346,0.1431,0.1452,0.1475,0.1485,0.1478,0.1532,0.1537,0.1541,0.155,0.1557,0.1485,0.1484,0.1484,0.1484,0,0.0826,0.0869,0.0891,0.0963,0.0993,0.103,0.108,0.1125,0.1168,0.1201,0.1295,0.1355,0.1426,0.1451,0.1479,0.1541,0.1535,0.1534,0.1516,0.1549,0.1557,0.1563,0.1486,0.1486,0.1485,0.1485,0,0,0.0828,0.0895,0.0912,0.0945,0.1023,0.1047,0.1118,0.1184,0.1231,0.1295,0.1351,0.1451,0.1469,0.1508,0.154,0.1565,0.1608,0.1566,0.1567,0.1569,0.1661,0.1545,0.154,0.1617,0.1619,0.162,0.165,0,0.0852,0.0911,0.0947,0.1013,0.1048,0.1105,0.1163,0.1228,0.1287,0.135,0.1409,0.148,0.1495,0.1531,0.1561,0.1606,0.1626,0.1599,0.1634,0.1635,0.1522,0.1544,0.1624,0.1654,0.1655,0.1656,0.1657,0,0.0879,0.0918,0.0972,0.1042,0.1066,0.1109,0.1206,0.1261,0.1354,0.1399,0.1466,0.1508,0.1579,0.1569,0.1649,0.1633,0.1649,0.1666,0.1668,0.1557,0.153,0.1617,0.1668,0.1667,0.1666,0.1665,0.1665,0,0.0866,0.0943,0.0983,0.101,0.109,0.1135,0.1187,0.1281,0.1334,0.1427,0.1471,0.1548,0.1601,0.1633,0.1682,0.1671,0.1746,0.1732,0.1638,0.163,0.1718,0.1712,0.1769,0.1769,0.1769,0.1769,0.1769,0,0.0878,0.0921,0.098,0.1006,0.1063,0.1127,0.1201,0.1264,0.1354,0.1412,0.1491,0.1538,0.1623,0.1676,0.1693,0.1684,0.1757,0.164,0.163,0.1724,0.1719,0.1721,0.1715,0.177,0.177,0.177,0.177,0,0.0858,0.0901,0.0949,0.1028,0.1055,0.1097,0.1195,0.1243,0.1339,0.1414,0.1446,0.1554,0.1616,0.1679,0.174,0.1695,0.1697,0.1674,0.177,0.1766,0.1556,0.1551,0.1555,0.1551,0.1548,0.1545,0.1543,0,0.0842,0.0866,0.0944,0.097,0.1009,0.1077,0.1122,0.1223,0.127,0.141,0.1434,0.1535,0.1593,0.1587,0.1652,0.166,0.1645,0.1625,0.1581,0.1543,0.1535,0.1535,0.1534,0.1538,0.1537,0.1536,0.1535,0,0.0811,0.085,0.0882,0.0931,0.0978,0.1026,0.1098,0.1123,0.1241,0.1335,0.1385,0.1415,0.1482,0.1516,0.154,0.1543,0.1622,0.159,0.1596,0.1555,0.1523,0.1517,0.152,0.1524,0.1525,0.1527,0.1527,0,0.0784,0.0794,0.084,0.0878,0.0932,0.0965,0.1011,0.1063,0.1119,0.1264,0.1274,0.1379,0.147,0.1456,0.1476,0.1471,0.144,0.138,0.1396,0.1409,0.1347,0.1283,0.12,0,0,0,0,0,0.0748,0.0754,0.0783,0.0823,0.0875,0.0914,0.0989,0.1039,0.1145,0.1145,0.1207,0.1256,0.1286,0.1334,0.1298,0.1408,0.1448,0.1358,0.1388,0.1461,0.1474,0.1413,0,0,0,0,0,0,0.0723,0.0747,0.0758,0.0769,0.0792,0.0847,0.0896,0.0969,0.0972,0.1079,0.1102,0.1172,0.1223,0.1301,0.1276,0.1288,0.1276,0.1415,0.1411,0.1454,0.1466,0.1476,0.1418,0,0,0,0,0]},{"header":{"parameterUnit":"m.s-1","parameterCategory":2,"la1":30.2991,"la2":30.254,"lo1":-89.0895,"lo2":-89.0444,"dy":0.0017,"dx":0.0017,"nx":28,"ny":28,"refTime":"2024-05-14T03:00:00:Z","depth":"4","parameterNumber":3,"parameterNumberName":"V-component_of_CURRENTS"},"data":[0,0,0,0,0,0,0,0,0,0,0,0,0,0,0,0,0,0,0,0,0,0,0,0,0,0,0,0,0,0,0,0,0,0,0,0,0,0,0,0,0,0,0,0,0,0,0,0,0,0,0,0,0,0,0,0,0,0,0.0342,0.0342,0,0.0322,0.0321,0.0321,0.0292,0.0291,0.0291,0.0291,0.0224,0.0222,0.0221,0,0,0,0,0,0,0,0,0,0,0,0,0,0.0358,0.0358,0.0342,0.0342,0.0342,0.0322,0.0321,0.0321,0.0292,0.0291,0.0291,0.0291,0.0224,0.0223,0.0221,0,0,0,0,0,0,0,0,0,0,0,0,0,0.0344,0.0358,0.0342,0.0327,0.0326,0.0322,0.0321,0.0321,0.0292,0.0291,0.0291,0.029,0.0225,0.0223,0.022,0.0215,0,0,0.0214,0.0213,0,0,0,0,0,0,0,0,0.0344,0.0343,0.0329,0.0328,0.0327,0.0311,0.0303,0.0284,0.0292,0.0302,0.0291,0.029,0.0251,0.0246,0.024,0.0212,0.0209,0.0213,0.0212,0.0211,0.021,0,0,0,0,0,0,0,0.0345,0.0343,0.0332,0.0329,0.0328,0.0322,0.0319,0.0299,0.0276,0.0301,0.03,0.0301,0.0249,0.0243,0.0239,0.0208,0.0213,0.0211,0.021,0.0209,0.0154,0.0154,0,0,0,0,0,0,0.0353,0.0344,0.0332,0.0331,0.0337,0.0322,0.0319,0.0314,0.0277,0.0272,0.0302,0.03,0.0247,0.0241,0.0236,0.0207,0.0211,0.0209,0.0208,0.0154,0.0154,0.0154,0,0,0,0,0,0,0.0353,0.0352,0.0333,0.034,0.0337,0.0323,0.0318,0.0314,0.031,0.0279,0.0272,0.0302,0.0246,0.0239,0.0203,0.0205,0.0208,0.0206,0.0154,0.0154,0.0154,0.0162,0,0,0,0,0,0,0.0354,0.0352,0.0352,0.034,0.0337,0.0332,0.0318,0.0314,0.0313,0.0311,0.0277,0.027,0.0245,0.0207,0.0201,0.0202,0.0204,0.0154,0.0154,0.0154,0.0162,0.0162,0.0162,0,0,0,0,0,0.0354,0.0362,0.0352,0.0351,0.0337,0.0333,0.0331,0.0317,0.0314,0.0312,0.0277,0.0271,0.0202,0.0204,0.0198,0.0198,0.0155,0.0154,0.0154,0.0161,0.0162,0.0162,0,0,0,0,0,0,0.0377,0.0359,0.0348,0.0352,0.0342,0.0329,0.033,0.0323,0.0298,0.0294,0.0261,0.0251,0.0222,0.021,0.0213,0.0183,0.0182,0.018,0.0189,0.019,0.019,0.0206,0.0202,0,0,0,0,0,0.038,0.0376,0.0361,0.0365,0.0359,0.0345,0.0343,0.0335,0.0314,0.0303,0.0274,0.0246,0.0217,0.0203,0.0176,0.0157,0.0156,0.0157,0.0157,0.0157,0.0167,0.017,0.0172,0.0153,0.0153,0.0153,0,0,0.0396,0.0383,0.0384,0.0369,0.0359,0.0345,0.0342,0.0343,0.0325,0.0299,0.0263,0.0243,0.0212,0.0183,0.0172,0.0173,0.0158,0.0157,0.0157,0.0167,0.017,0.0172,0.0174,0.0153,0.0153,0.0153,0,0,0.0411,0.0406,0.0398,0.0387,0.0373,0.036,0.0362,0.0344,0.0328,0.0296,0.0272,0.0254,0.0206,0.0188,0.0172,0.0162,0.0157,0.0157,0.0171,0.0174,0.0176,0.0177,0.0161,0.0162,0.0159,0.0159,0.0159,0,0.0422,0.0406,0.0399,0.0382,0.0373,0.0366,0.0352,0.0336,0.0307,0.0301,0.0284,0.0238,0.021,0.0189,0.0178,0.0164,0.0159,0.017,0.0175,0.0177,0.0178,0.0162,0.0162,0.0159,0.0159,0.0159,0.0159,0,0.0418,0.0406,0.0404,0.037,0.0365,0.0358,0.0335,0.0325,0.0307,0.0298,0.0276,0.0239,0.022,0.0207,0.0182,0.0183,0.0172,0.0173,0.0176,0.0181,0.0163,0.0163,0.016,0.016,0.016,0.016,0,0,0.0419,0.0402,0.0397,0.0384,0.0356,0.0355,0.033,0.0314,0.0321,0.0288,0.0289,0.0239,0.0246,0.0229,0.0209,0.0207,0.0199,0.0195,0.0195,0.0182,0.0193,0.0165,0.0162,0.0203,0.0203,0.0204,0.017,0,0.0404,0.0382,0.0374,0.0355,0.0339,0.0332,0.0319,0.0313,0.0305,0.0307,0.0287,0.0278,0.0246,0.0245,0.0236,0.0214,0.0203,0.0208,0.0188,0.0187,0.0166,0.0163,0.0205,0.017,0.017,0.017,0.017,0,0.0375,0.0367,0.035,0.0348,0.0344,0.0339,0.034,0.0333,0.0341,0.0339,0.0338,0.0326,0.0309,0.0287,0.0252,0.0257,0.0224,0.0206,0.0204,0.018,0.0161,0.0168,0.017,0.017,0.017,0.017,0.017,0,0.0358,0.0342,0.0335,0.0329,0.033,0.0332,0.0338,0.0349,0.0367,0.0372,0.0392,0.0367,0.0362,0.0325,0.0266,0.0264,0.0233,0.0225,0.0167,0.0164,0.0196,0.0195,0.0205,0.0205,0.0205,0.0205,0.0205,0,0.0324,0.0316,0.0334,0.0329,0.035,0.0344,0.038,0.0384,0.0412,0.045,0.042,0.0432,0.0375,0.0344,0.0286,0.0222,0.0244,0.017,0.0158,0.0196,0.0196,0.0195,0.0194,0.0204,0.0204,0.0204,0.0205,0,0.0295,0.03,0.0306,0.0326,0.0342,0.0362,0.042,0.0454,0.0467,0.0512,0.0514,0.0489,0.0439,0.0371,0.0308,0.0251,0.0191,0.0161,0.0195,0.0185,0.0114,0.0114,0.0099,0.0098,0.0097,0.0096,0.0095,0,0.0275,0.0276,0.0322,0.0355,0.0369,0.041,0.0454,0.0482,0.0519,0.0545,0.0565,0.0527,0.0495,0.0382,0.0305,0.0189,0.0169,0.0129,0.0128,0.0115,0.0105,0.0107,0.0108,0.0094,0.0093,0.0093,0.0093,0,0.0259,0.0286,0.0312,0.0378,0.0428,0.0485,0.0537,0.0563,0.0596,0.0613,0.06,0.0534,0.0476,0.0377,0.0282,0.0201,0.0153,0.0119,0.012,0.0119,0.0109,0.01,0.0103,0.0089,0.009,0.009,0.009,0,0.0273,0.0301,0.0355,0.041,0.0477,0.053,0.0557,0.0591,0.0622,0.0631,0.0626,0.0555,0.0517,0.0383,0.0301,0.0211,0.0188,0.0153,0.0152,0.0155,0.0176,0.0172,0.0165,0,0,0,0,0,0.0289,0.0332,0.0386,0.0449,0.0508,0.0541,0.0606,0.0626,0.0649,0.0641,0.063,0.0568,0.0438,0.0388,0.0293,0.0281,0.0173,0.0167,0.0133,0.0071,0.0075,0.0088,0,0,0,0,0,0,0.0312,0.0368,0.039,0.0465,0.0503,0.0571,0.0607,0.0623,0.0614,0.0619,0.0553,0.0529,0.0406,0.0485,0.0284,0.026,0.0221,0.0112,0.011,0.0069,0.0072,0.0075,0.009,0,0,0,0,0]}]]